owner,sensor,date,latitude,longitude,vertical_datum,sea_water_practical_salinity,qcFlag 
DISL,ioos:station:DISL:PPTA:1,2011-12-01T00:00:00Z,30.2791,-87.5561,1.088,31.71,1111122 
DISL,ioos:station:DISL:PPTA:1,2011-12-01T00:30:00Z,30.2791,-87.5561,1.097,31.79,1111122 
DISL,ioos:station:DISL:PPTA:1,2011-12-01T01:00:00Z,30.2791,-87.5561,1.119,31.82,1111122 
DISL,ioos:station:DISL:PPTA:1,2011-12-01T01:30:00Z,30.2791,-87.5561,1.123,31.85,1111122 
DISL,ioos:station:DISL:PPTA:1,2011-12-01T02:00:00Z,30.2791,-87.5561,1.129,31.95,1111122 
DISL,ioos:station:DISL:PPTA:1,2011-12-01T02:30:00Z,30.2791,-87.5561,1.141,31.88,1111122 
DISL,ioos:station:DISL:PPTA:1,2011-12-01T03:00:00Z,30.2791,-87.5561,1.157,31.99,1111122 
DISL,ioos:station:DISL:PPTA:1,2011-12-01T03:30:00Z,30.2791,-87.5561,1.163,32.07,1111122 
DISL,ioos:station:DISL:PPTA:1,2011-12-01T04:00:00Z,30.2791,-87.5561,1.165,31.95,1111122 
DISL,ioos:station:DISL:PPTA:1,2011-12-01T04:30:00Z,30.2791,-87.5561,1.181,32.07,1111122 
DISL,ioos:station:DISL:PPTA:1,2011-12-01T05:00:00Z,30.2791,-87.5561,1.191,32.09,1111122 
DISL,ioos:station:DISL:PPTA:1,2011-12-01T05:30:00Z,30.2791,-87.5561,1.193,32.11,1111122 
DISL,ioos:station:DISL:PPTA:1,2011-12-01T06:00:00Z,30.2791,-87.5561,1.192,32.06,1111122 
DISL,ioos:station:DISL:PPTA:1,2011-12-01T06:30:00Z,30.2791,-87.5561,1.188,31.84,1111122 
DISL,ioos:station:DISL:PPTA:1,2011-12-01T07:00:00Z,30.2791,-87.5561,1.182,31.91,1111122 
DISL,ioos:station:DISL:PPTA:1,2011-12-01T07:30:00Z,30.2791,-87.5561,1.188,31.92,1111122 
DISL,ioos:station:DISL:PPTA:1,2011-12-01T08:00:00Z,30.2791,-87.5561,1.187,31.9,1111122 
DISL,ioos:station:DISL:PPTA:1,2011-12-01T08:30:00Z,30.2791,-87.5561,1.185,31.79,1111122 
DISL,ioos:station:DISL:PPTA:1,2011-12-01T09:00:00Z,30.2791,-87.5561,1.152,31.78,1111122 
DISL,ioos:station:DISL:PPTA:1,2011-12-01T09:30:00Z,30.2791,-87.5561,1.162,31.34,1111122 
DISL,ioos:station:DISL:PPTA:1,2011-12-01T10:00:00Z,30.2791,-87.5561,1.149,31.33,1111122 
DISL,ioos:station:DISL:PPTA:1,2011-12-01T10:30:00Z,30.2791,-87.5561,1.136,31.45,1111122 
DISL,ioos:station:DISL:PPTA:1,2011-12-01T11:00:00Z,30.2791,-87.5561,1.13,31.12,1111122 
DISL,ioos:station:DISL:PPTA:1,2011-12-01T11:30:00Z,30.2791,-87.5561,1.1,31.09,1111122 
DISL,ioos:station:DISL:PPTA:1,2011-12-01T12:00:00Z,30.2791,-87.5561,1.095,31.1,1111122 
DISL,ioos:station:DISL:PPTA:1,2011-12-01T12:30:00Z,30.2791,-87.5561,1.093,31.16,1111122 
DISL,ioos:station:DISL:PPTA:1,2011-12-01T13:00:00Z,30.2791,-87.5561,1.076,30.63,1111122 
DISL,ioos:station:DISL:PPTA:1,2011-12-01T13:30:00Z,30.2791,-87.5561,1.065,30.73,1111122 
DISL,ioos:station:DISL:PPTA:1,2011-12-01T14:00:00Z,30.2791,-87.5561,1.056,29.95,1111122 
DISL,ioos:station:DISL:PPTA:1,2011-12-01T14:30:00Z,30.2791,-87.5561,1.049,29.61,1111122 
DISL,ioos:station:DISL:PPTA:1,2011-12-01T15:00:00Z,30.2791,-87.5561,1.032,29.32,1111122 
DISL,ioos:station:DISL:PPTA:1,2011-12-01T15:30:00Z,30.2791,-87.5561,1.02,29.53,1111122 
DISL,ioos:station:DISL:PPTA:1,2011-12-01T16:00:00Z,30.2791,-87.5561,1.023,29.59,1111122 
DISL,ioos:station:DISL:PPTA:1,2011-12-01T16:30:00Z,30.2791,-87.5561,1.028,29.82,1111122 
DISL,ioos:station:DISL:PPTA:1,2011-12-01T17:00:00Z,30.2791,-87.5561,1.019,28.66,1111122 
DISL,ioos:station:DISL:PPTA:1,2011-12-01T17:30:00Z,30.2791,-87.5561,1.021,28.52,1111122 
DISL,ioos:station:DISL:PPTA:1,2011-12-01T18:00:00Z,30.2791,-87.5561,1.028,28.06,1111122 
DISL,ioos:station:DISL:PPTA:1,2011-12-01T18:30:00Z,30.2791,-87.5561,1.023,27.95,1111122 
DISL,ioos:station:DISL:PPTA:1,2011-12-01T19:00:00Z,30.2791,-87.5561,1.034,29.35,1111122 
DISL,ioos:station:DISL:PPTA:1,2011-12-01T19:30:00Z,30.2791,-87.5561,1.034,28.71,1111122 
DISL,ioos:station:DISL:PPTA:1,2011-12-01T20:00:00Z,30.2791,-87.5561,1.047,28.95,1111122 
DISL,ioos:station:DISL:PPTA:1,2011-12-01T20:30:00Z,30.2791,-87.5561,1.045,28.06,1111122 
DISL,ioos:station:DISL:PPTA:1,2011-12-01T21:00:00Z,30.2791,-87.5561,1.037,30.37,1111122 
DISL,ioos:station:DISL:PPTA:1,2011-12-01T21:30:00Z,30.2791,-87.5561,1.067,29.39,1111122 
DISL,ioos:station:DISL:PPTA:1,2011-12-01T22:00:00Z,30.2791,-87.5561,1.055,28.72,1111122 
DISL,ioos:station:DISL:PPTA:1,2011-12-01T22:30:00Z,30.2791,-87.5561,1.052,30.72,1111122 
DISL,ioos:station:DISL:PPTA:1,2011-12-01T23:00:00Z,30.2791,-87.5561,1.049,30.92,1111122 
DISL,ioos:station:DISL:PPTA:1,2011-12-01T23:30:00Z,30.2791,-87.5561,1.069,30.43,1111122 
DISL,ioos:station:DISL:PPTA:1,2011-12-02T00:00:00Z,30.2791,-87.5561,1.085,31.44,1111122 
DISL,ioos:station:DISL:PPTA:1,2011-12-02T00:30:00Z,30.2791,-87.5561,1.075,31.48,1111122 
DISL,ioos:station:DISL:PPTA:1,2011-12-02T01:00:00Z,30.2791,-87.5561,1.104,31.42,1111122 
DISL,ioos:station:DISL:PPTA:1,2011-12-02T01:30:00Z,30.2791,-87.5561,1.092,31.84,1111122 
DISL,ioos:station:DISL:PPTA:1,2011-12-02T02:00:00Z,30.2791,-87.5561,1.074,31.63,1111122 
DISL,ioos:station:DISL:PPTA:1,2011-12-02T02:30:00Z,30.2791,-87.5561,1.12,31.52,1111122 
DISL,ioos:station:DISL:PPTA:1,2011-12-02T03:00:00Z,30.2791,-87.5561,1.1,31.96,1111122 
DISL,ioos:station:DISL:PPTA:1,2011-12-02T03:30:00Z,30.2791,-87.5561,1.132,31.68,1111122 
DISL,ioos:station:DISL:PPTA:1,2011-12-02T04:00:00Z,30.2791,-87.5561,1.14,31.98,1111122 
DISL,ioos:station:DISL:PPTA:1,2011-12-02T04:30:00Z,30.2791,-87.5561,1.134,31.93,1111122 
DISL,ioos:station:DISL:PPTA:1,2011-12-02T05:00:00Z,30.2791,-87.5561,1.123,32.0,1111122 
DISL,ioos:station:DISL:PPTA:1,2011-12-02T05:30:00Z,30.2791,-87.5561,1.143,31.79,1111122 
DISL,ioos:station:DISL:PPTA:1,2011-12-02T06:00:00Z,30.2791,-87.5561,1.161,31.89,1111122 
DISL,ioos:station:DISL:PPTA:1,2011-12-02T06:30:00Z,30.2791,-87.5561,1.138,31.96,1111122 
DISL,ioos:station:DISL:PPTA:1,2011-12-02T07:00:00Z,30.2791,-87.5561,1.158,31.73,1111122 
DISL,ioos:station:DISL:PPTA:1,2011-12-02T07:30:00Z,30.2791,-87.5561,1.15,31.89,1111122 
DISL,ioos:station:DISL:PPTA:1,2011-12-02T08:00:00Z,30.2791,-87.5561,1.142,31.88,1111122 
DISL,ioos:station:DISL:PPTA:1,2011-12-02T08:30:00Z,30.2791,-87.5561,1.11,31.71,1111122 
DISL,ioos:station:DISL:PPTA:1,2011-12-02T09:00:00Z,30.2791,-87.5561,1.169,29.48,1111122 
DISL,ioos:station:DISL:PPTA:1,2011-12-02T09:30:00Z,30.2791,-87.5561,1.113,29.77,1111122 
DISL,ioos:station:DISL:PPTA:1,2011-12-02T10:00:00Z,30.2791,-87.5561,1.126,29.89,1111122 
DISL,ioos:station:DISL:PPTA:1,2011-12-02T10:30:00Z,30.2791,-87.5561,1.143,30.32,1111122 
DISL,ioos:station:DISL:PPTA:1,2011-12-02T11:00:00Z,30.2791,-87.5561,1.126,30.72,1111122 
DISL,ioos:station:DISL:PPTA:1,2011-12-02T11:30:00Z,30.2791,-87.5561,1.116,30.76,1111122 
DISL,ioos:station:DISL:PPTA:1,2011-12-02T12:00:00Z,30.2791,-87.5561,1.122,30.57,1111122 
DISL,ioos:station:DISL:PPTA:1,2011-12-02T12:30:00Z,30.2791,-87.5561,1.103,30.92,1111122 
DISL,ioos:station:DISL:PPTA:1,2011-12-02T13:00:00Z,30.2791,-87.5561,1.073,30.55,1111122 
DISL,ioos:station:DISL:PPTA:1,2011-12-02T13:30:00Z,30.2791,-87.5561,1.105,29.73,1111122 
DISL,ioos:station:DISL:PPTA:1,2011-12-02T14:00:00Z,30.2791,-87.5561,1.094,29.48,1111122 
DISL,ioos:station:DISL:PPTA:1,2011-12-02T14:30:00Z,30.2791,-87.5561,1.084,29.15,1111122 
DISL,ioos:station:DISL:PPTA:1,2011-12-02T15:00:00Z,30.2791,-87.5561,1.089,28.59,1111122 
DISL,ioos:station:DISL:PPTA:1,2011-12-02T15:30:00Z,30.2791,-87.5561,1.066,28.41,1111122 
DISL,ioos:station:DISL:PPTA:1,2011-12-02T16:00:00Z,30.2791,-87.5561,1.087,28.1,1111122 
DISL,ioos:station:DISL:PPTA:1,2011-12-02T16:30:00Z,30.2791,-87.5561,1.09,27.96,1111122 
DISL,ioos:station:DISL:PPTA:1,2011-12-02T17:00:00Z,30.2791,-87.5561,1.108,28.17,1111122 
DISL,ioos:station:DISL:PPTA:1,2011-12-02T18:30:00Z,30.2791,-87.5561,1.088,28.14,1111122 
DISL,ioos:station:DISL:PPTA:1,2011-12-02T20:00:00Z,30.2791,-87.5561,0.0,99.0,11144222 
DISL,ioos:station:DISL:PPTA:1,2011-12-02T20:30:00Z,30.2791,-87.5561,0.0,99.0,11144222 
DISL,ioos:station:DISL:PPTA:1,2011-12-02T21:00:00Z,30.2791,-87.5561,1.084,29.8,1111122 
DISL,ioos:station:DISL:PPTA:1,2011-12-02T21:30:00Z,30.2791,-87.5561,1.124,30.6,1111122 
DISL,ioos:station:DISL:PPTA:1,2011-12-02T22:00:00Z,30.2791,-87.5561,1.121,31.42,1111122 
DISL,ioos:station:DISL:PPTA:1,2011-12-02T22:30:00Z,30.2791,-87.5561,1.114,30.89,1111122 
DISL,ioos:station:DISL:PPTA:1,2011-12-02T23:00:00Z,30.2791,-87.5561,1.119,31.47,1111122 
DISL,ioos:station:DISL:PPTA:1,2011-12-02T23:30:00Z,30.2791,-87.5561,1.129,31.96,1111122 
DISL,ioos:station:DISL:PPTA:1,2011-12-03T00:00:00Z,30.2791,-87.5561,1.14,31.89,1111122 
DISL,ioos:station:DISL:PPTA:1,2011-12-03T00:30:00Z,30.2791,-87.5561,1.141,31.89,1111122 
DISL,ioos:station:DISL:PPTA:1,2011-12-03T01:00:00Z,30.2791,-87.5561,1.129,31.91,1111122 
DISL,ioos:station:DISL:PPTA:1,2011-12-03T01:30:00Z,30.2791,-87.5561,1.16,31.94,1111122 
DISL,ioos:station:DISL:PPTA:1,2011-12-03T02:00:00Z,30.2791,-87.5561,1.12,32.02,1111122 
DISL,ioos:station:DISL:PPTA:1,2011-12-03T02:30:00Z,30.2791,-87.5561,1.139,32.03,1111122 
DISL,ioos:station:DISL:PPTA:1,2011-12-03T03:00:00Z,30.2791,-87.5561,1.154,32.02,1111122 
DISL,ioos:station:DISL:PPTA:1,2011-12-03T03:30:00Z,30.2791,-87.5561,1.13,32.05,1111122 
DISL,ioos:station:DISL:PPTA:1,2011-12-03T04:00:00Z,30.2791,-87.5561,1.13,31.88,1111122 
DISL,ioos:station:DISL:PPTA:1,2011-12-03T04:30:00Z,30.2791,-87.5561,1.14,29.94,1111122 
DISL,ioos:station:DISL:PPTA:1,2011-12-03T05:00:00Z,30.2791,-87.5561,1.127,28.63,1111122 
DISL,ioos:station:DISL:PPTA:1,2011-12-03T05:30:00Z,30.2791,-87.5561,1.127,28.55,1111122 
DISL,ioos:station:DISL:PPTA:1,2011-12-03T06:00:00Z,30.2791,-87.5561,1.136,28.85,1111122 
DISL,ioos:station:DISL:PPTA:1,2011-12-03T06:30:00Z,30.2791,-87.5561,1.131,28.94,1111122 
DISL,ioos:station:DISL:PPTA:1,2011-12-03T07:00:00Z,30.2791,-87.5561,1.132,28.26,1111122 
DISL,ioos:station:DISL:PPTA:1,2011-12-03T07:30:00Z,30.2791,-87.5561,1.106,27.92,1111122 
DISL,ioos:station:DISL:PPTA:1,2011-12-03T08:00:00Z,30.2791,-87.5561,1.127,27.91,1111122 
DISL,ioos:station:DISL:PPTA:1,2011-12-03T08:30:00Z,30.2791,-87.5561,1.117,27.7,1111122 
DISL,ioos:station:DISL:PPTA:1,2011-12-03T09:00:00Z,30.2791,-87.5561,1.123,27.31,1111122 
DISL,ioos:station:DISL:PPTA:1,2011-12-03T09:30:00Z,30.2791,-87.5561,1.125,26.89,1111122 
DISL,ioos:station:DISL:PPTA:1,2011-12-03T10:00:00Z,30.2791,-87.5561,1.129,26.62,1111122 
DISL,ioos:station:DISL:PPTA:1,2011-12-03T10:30:00Z,30.2791,-87.5561,1.129,26.53,1111122 
DISL,ioos:station:DISL:PPTA:1,2011-12-03T11:00:00Z,30.2791,-87.5561,1.119,25.94,1111122 
DISL,ioos:station:DISL:PPTA:1,2011-12-03T11:30:00Z,30.2791,-87.5561,1.107,27.96,1111122 
DISL,ioos:station:DISL:PPTA:1,2011-12-03T12:00:00Z,30.2791,-87.5561,1.115,25.7,1111122 
DISL,ioos:station:DISL:PPTA:1,2011-12-03T12:30:00Z,30.2791,-87.5561,1.125,25.79,1111122 
DISL,ioos:station:DISL:PPTA:1,2011-12-03T13:00:00Z,30.2791,-87.5561,1.131,26.45,1111122 
DISL,ioos:station:DISL:PPTA:1,2011-12-03T13:30:00Z,30.2791,-87.5561,1.137,26.65,1111122 
DISL,ioos:station:DISL:PPTA:1,2011-12-03T14:00:00Z,30.2791,-87.5561,1.13,25.67,1111122 
DISL,ioos:station:DISL:PPTA:1,2011-12-03T14:30:00Z,30.2791,-87.5561,1.13,26.74,1111122 
DISL,ioos:station:DISL:PPTA:1,2011-12-03T15:00:00Z,30.2791,-87.5561,1.158,27.22,1111122 
DISL,ioos:station:DISL:PPTA:1,2011-12-03T15:30:00Z,30.2791,-87.5561,1.136,24.96,1111122 
DISL,ioos:station:DISL:PPTA:1,2011-12-03T16:00:00Z,30.2791,-87.5561,1.16,27.3,1111122 
DISL,ioos:station:DISL:PPTA:1,2011-12-03T16:30:00Z,30.2791,-87.5561,1.164,26.21,1111122 
DISL,ioos:station:DISL:PPTA:1,2011-12-03T17:00:00Z,30.2791,-87.5561,1.164,26.03,1111122 
DISL,ioos:station:DISL:PPTA:1,2011-12-03T17:30:00Z,30.2791,-87.5561,1.172,30.3,1111122 
DISL,ioos:station:DISL:PPTA:1,2011-12-03T18:00:00Z,30.2791,-87.5561,1.183,28.25,1111122 
DISL,ioos:station:DISL:PPTA:1,2011-12-03T18:30:00Z,30.2791,-87.5561,1.191,28.94,1111122 
DISL,ioos:station:DISL:PPTA:1,2011-12-03T19:00:00Z,30.2791,-87.5561,1.198,29.77,1111122 
DISL,ioos:station:DISL:PPTA:1,2011-12-03T19:30:00Z,30.2791,-87.5561,1.212,31.05,1111122 
DISL,ioos:station:DISL:PPTA:1,2011-12-03T20:00:00Z,30.2791,-87.5561,1.234,29.8,1111122 
DISL,ioos:station:DISL:PPTA:1,2011-12-03T20:30:00Z,30.2791,-87.5561,1.271,31.65,1111122 
DISL,ioos:station:DISL:PPTA:1,2011-12-03T21:00:00Z,30.2791,-87.5561,1.234,31.7,1111122 
DISL,ioos:station:DISL:PPTA:1,2011-12-03T21:30:00Z,30.2791,-87.5561,1.243,31.36,1111122 
DISL,ioos:station:DISL:PPTA:1,2011-12-03T22:00:00Z,30.2791,-87.5561,1.244,31.78,1111122 
DISL,ioos:station:DISL:PPTA:1,2011-12-03T22:30:00Z,30.2791,-87.5561,1.248,31.75,1111122 
DISL,ioos:station:DISL:PPTA:1,2011-12-03T23:00:00Z,30.2791,-87.5561,1.244,31.68,1111122 
DISL,ioos:station:DISL:PPTA:1,2011-12-03T23:30:00Z,30.2791,-87.5561,1.285,31.89,1111122 
DISL,ioos:station:DISL:PPTA:1,2011-12-04T00:00:00Z,30.2791,-87.5561,1.271,31.84,1111122 
DISL,ioos:station:DISL:PPTA:1,2011-12-04T00:30:00Z,30.2791,-87.5561,1.28,31.7,1111122 
DISL,ioos:station:DISL:PPTA:1,2011-12-04T01:00:00Z,30.2791,-87.5561,1.287,31.83,1111122 
DISL,ioos:station:DISL:PPTA:1,2011-12-04T01:30:00Z,30.2791,-87.5561,1.268,31.79,1111122 
DISL,ioos:station:DISL:PPTA:1,2011-12-04T02:00:00Z,30.2791,-87.5561,1.285,31.76,1111122 
DISL,ioos:station:DISL:PPTA:1,2011-12-04T02:30:00Z,30.2791,-87.5561,1.256,31.76,1111122 
DISL,ioos:station:DISL:PPTA:1,2011-12-04T03:00:00Z,30.2791,-87.5561,1.293,31.6,1111122 
DISL,ioos:station:DISL:PPTA:1,2011-12-04T03:30:00Z,30.2791,-87.5561,1.29,31.72,1111122 
DISL,ioos:station:DISL:PPTA:1,2011-12-04T04:00:00Z,30.2791,-87.5561,1.262,31.64,1111122 
DISL,ioos:station:DISL:PPTA:1,2011-12-04T04:30:00Z,30.2791,-87.5561,1.28,31.62,1111122 
DISL,ioos:station:DISL:PPTA:1,2011-12-04T05:00:00Z,30.2791,-87.5561,1.285,31.64,1111122 
DISL,ioos:station:DISL:PPTA:1,2011-12-04T05:30:00Z,30.2791,-87.5561,1.258,31.45,1111122 
DISL,ioos:station:DISL:PPTA:1,2011-12-04T06:00:00Z,30.2791,-87.5561,1.246,29.4,1111122 
DISL,ioos:station:DISL:PPTA:1,2011-12-04T06:30:00Z,30.2791,-87.5561,1.258,28.75,1111122 
DISL,ioos:station:DISL:PPTA:1,2011-12-04T07:00:00Z,30.2791,-87.5561,1.274,29.79,1111122 
DISL,ioos:station:DISL:PPTA:1,2011-12-04T07:30:00Z,30.2791,-87.5561,1.271,29.41,1111122 
DISL,ioos:station:DISL:PPTA:1,2011-12-04T08:00:00Z,30.2791,-87.5561,1.279,29.77,1111122 
DISL,ioos:station:DISL:PPTA:1,2011-12-04T08:30:00Z,30.2791,-87.5561,1.242,29.83,1111122 
DISL,ioos:station:DISL:PPTA:1,2011-12-04T09:00:00Z,30.2791,-87.5561,1.228,28.86,1111122 
DISL,ioos:station:DISL:PPTA:1,2011-12-04T09:30:00Z,30.2791,-87.5561,1.265,29.6,1111122 
DISL,ioos:station:DISL:PPTA:1,2011-12-04T10:00:00Z,30.2791,-87.5561,1.254,29.49,1111122 
DISL,ioos:station:DISL:PPTA:1,2011-12-04T10:30:00Z,30.2791,-87.5561,1.253,29.0,1111122 
DISL,ioos:station:DISL:PPTA:1,2011-12-04T11:00:00Z,30.2791,-87.5561,1.258,28.86,1111122 
DISL,ioos:station:DISL:PPTA:1,2011-12-04T11:30:00Z,30.2791,-87.5561,1.241,28.35,1111122 
DISL,ioos:station:DISL:PPTA:1,2011-12-04T12:00:00Z,30.2791,-87.5561,1.233,27.92,1111122 
DISL,ioos:station:DISL:PPTA:1,2011-12-04T12:30:00Z,30.2791,-87.5561,1.245,27.93,1111122 
DISL,ioos:station:DISL:PPTA:1,2011-12-04T13:00:00Z,30.2791,-87.5561,1.255,27.65,1111122 
DISL,ioos:station:DISL:PPTA:1,2011-12-04T13:30:00Z,30.2791,-87.5561,1.264,27.34,1111122 
DISL,ioos:station:DISL:PPTA:1,2011-12-04T14:00:00Z,30.2791,-87.5561,1.271,26.73,1111122 
DISL,ioos:station:DISL:PPTA:1,2011-12-04T14:30:00Z,30.2791,-87.5561,1.272,27.06,1111122 
DISL,ioos:station:DISL:PPTA:1,2011-12-04T15:00:00Z,30.2791,-87.5561,1.248,26.45,1111122 
DISL,ioos:station:DISL:PPTA:1,2011-12-04T15:30:00Z,30.2791,-87.5561,1.283,27.48,1111122 
DISL,ioos:station:DISL:PPTA:1,2011-12-04T16:00:00Z,30.2791,-87.5561,1.284,27.21,1111122 
DISL,ioos:station:DISL:PPTA:1,2011-12-04T16:30:00Z,30.2791,-87.5561,1.275,26.72,1111122 
DISL,ioos:station:DISL:PPTA:1,2011-12-04T17:00:00Z,30.2791,-87.5561,1.296,27.74,1111122 
DISL,ioos:station:DISL:PPTA:1,2011-12-04T17:30:00Z,30.2791,-87.5561,1.302,27.9,1111122 
DISL,ioos:station:DISL:PPTA:1,2011-12-04T18:00:00Z,30.2791,-87.5561,1.283,28.35,1111122 
DISL,ioos:station:DISL:PPTA:1,2011-12-04T18:30:00Z,30.2791,-87.5561,1.31,29.42,1111122 
DISL,ioos:station:DISL:PPTA:1,2011-12-04T19:00:00Z,30.2791,-87.5561,1.351,29.86,1111122 
DISL,ioos:station:DISL:PPTA:1,2011-12-04T19:30:00Z,30.2791,-87.5561,1.34,30.22,1111122 
DISL,ioos:station:DISL:PPTA:1,2011-12-04T20:00:00Z,30.2791,-87.5561,1.361,30.1,1111122 
DISL,ioos:station:DISL:PPTA:1,2011-12-04T20:30:00Z,30.2791,-87.5561,1.359,30.21,1111122 
DISL,ioos:station:DISL:PPTA:1,2011-12-04T21:00:00Z,30.2791,-87.5561,1.372,30.47,1111122 
DISL,ioos:station:DISL:PPTA:1,2011-12-04T21:30:00Z,30.2791,-87.5561,1.385,30.34,1111122 
DISL,ioos:station:DISL:PPTA:1,2011-12-04T22:00:00Z,30.2791,-87.5561,1.397,30.42,1111122 
DISL,ioos:station:DISL:PPTA:1,2011-12-04T22:30:00Z,30.2791,-87.5561,1.398,30.33,1111122 
DISL,ioos:station:DISL:PPTA:1,2011-12-04T23:00:00Z,30.2791,-87.5561,1.379,30.37,1111122 
DISL,ioos:station:DISL:PPTA:1,2011-12-04T23:30:00Z,30.2791,-87.5561,1.395,30.36,1111122 
DISL,ioos:station:DISL:PPTA:1,2011-12-05T00:00:00Z,30.2791,-87.5561,1.392,30.43,1111122 
DISL,ioos:station:DISL:PPTA:1,2011-12-05T00:30:00Z,30.2791,-87.5561,1.401,30.38,1111122 
DISL,ioos:station:DISL:PPTA:1,2011-12-05T01:00:00Z,30.2791,-87.5561,1.415,30.33,1111122 
DISL,ioos:station:DISL:PPTA:1,2011-12-05T01:30:00Z,30.2791,-87.5561,1.419,30.43,1111122 
DISL,ioos:station:DISL:PPTA:1,2011-12-05T02:00:00Z,30.2791,-87.5561,1.421,30.33,1111122 
DISL,ioos:station:DISL:PPTA:1,2011-12-05T02:30:00Z,30.2791,-87.5561,1.42,30.27,1111122 
DISL,ioos:station:DISL:PPTA:1,2011-12-05T03:00:00Z,30.2791,-87.5561,1.41,30.18,1111122 
DISL,ioos:station:DISL:PPTA:1,2011-12-05T03:30:00Z,30.2791,-87.5561,1.406,30.25,1111122 
DISL,ioos:station:DISL:PPTA:1,2011-12-05T04:00:00Z,30.2791,-87.5561,1.377,29.98,1111122 
DISL,ioos:station:DISL:PPTA:1,2011-12-05T04:30:00Z,30.2791,-87.5561,1.376,30.24,1111122 
DISL,ioos:station:DISL:PPTA:1,2011-12-05T05:00:00Z,30.2791,-87.5561,1.37,28.76,1111122 
DISL,ioos:station:DISL:PPTA:1,2011-12-05T05:30:00Z,30.2791,-87.5561,1.371,28.17,1111122 
DISL,ioos:station:DISL:PPTA:1,2011-12-05T06:00:00Z,30.2791,-87.5561,1.351,28.32,1111122 
DISL,ioos:station:DISL:PPTA:1,2011-12-05T06:30:00Z,30.2791,-87.5561,1.36,28.41,1111122 
DISL,ioos:station:DISL:PPTA:1,2011-12-05T07:00:00Z,30.2791,-87.5561,1.334,29.16,1111122 
DISL,ioos:station:DISL:PPTA:1,2011-12-05T07:30:00Z,30.2791,-87.5561,1.348,28.86,1111122 
DISL,ioos:station:DISL:PPTA:1,2011-12-05T08:00:00Z,30.2791,-87.5561,1.32,28.95,1111122 
DISL,ioos:station:DISL:PPTA:1,2011-12-05T08:30:00Z,30.2791,-87.5561,1.334,28.77,1111122 
DISL,ioos:station:DISL:PPTA:1,2011-12-05T09:00:00Z,30.2791,-87.5561,1.301,28.56,1111122 
DISL,ioos:station:DISL:PPTA:1,2011-12-05T09:30:00Z,30.2791,-87.5561,1.284,28.6,1111122 
DISL,ioos:station:DISL:PPTA:1,2011-12-05T10:00:00Z,30.2791,-87.5561,1.305,28.2,1111122 
DISL,ioos:station:DISL:PPTA:1,2011-12-05T10:30:00Z,30.2791,-87.5561,1.304,27.43,1111122 
DISL,ioos:station:DISL:PPTA:1,2011-12-05T11:00:00Z,30.2791,-87.5561,1.296,27.18,1111122 
DISL,ioos:station:DISL:PPTA:1,2011-12-05T11:30:00Z,30.2791,-87.5561,1.327,26.43,1111122 
DISL,ioos:station:DISL:PPTA:1,2011-12-05T12:00:00Z,30.2791,-87.5561,1.328,26.73,1111122 
DISL,ioos:station:DISL:PPTA:1,2011-12-05T12:30:00Z,30.2791,-87.5561,1.29,27.45,1111122 
DISL,ioos:station:DISL:PPTA:1,2011-12-05T13:00:00Z,30.2791,-87.5561,1.287,27.52,1111122 
DISL,ioos:station:DISL:PPTA:1,2011-12-05T13:30:00Z,30.2791,-87.5561,1.312,27.93,1111122 
DISL,ioos:station:DISL:PPTA:1,2011-12-05T14:00:00Z,30.2791,-87.5561,1.308,27.53,1111122 
DISL,ioos:station:DISL:PPTA:1,2011-12-05T14:30:00Z,30.2791,-87.5561,1.304,28.25,1111122 
DISL,ioos:station:DISL:PPTA:1,2011-12-05T15:00:00Z,30.2791,-87.5561,1.332,27.96,1111122 
DISL,ioos:station:DISL:PPTA:1,2011-12-05T15:30:00Z,30.2791,-87.5561,1.331,27.35,1111122 
DISL,ioos:station:DISL:PPTA:1,2011-12-05T16:00:00Z,30.2791,-87.5561,1.374,29.07,1111122 
DISL,ioos:station:DISL:PPTA:1,2011-12-05T16:30:00Z,30.2791,-87.5561,1.346,29.1,1111122 
DISL,ioos:station:DISL:PPTA:1,2011-12-05T17:00:00Z,30.2791,-87.5561,1.364,29.26,1111122 
DISL,ioos:station:DISL:PPTA:1,2011-12-05T17:30:00Z,30.2791,-87.5561,1.361,29.32,1111122 
DISL,ioos:station:DISL:PPTA:1,2011-12-05T18:00:00Z,30.2791,-87.5561,1.367,29.41,1111122 
DISL,ioos:station:DISL:PPTA:1,2011-12-05T18:30:00Z,30.2791,-87.5561,1.367,29.44,1111122 
DISL,ioos:station:DISL:PPTA:1,2011-12-05T19:00:00Z,30.2791,-87.5561,1.413,29.61,1111122 
DISL,ioos:station:DISL:PPTA:1,2011-12-05T19:30:00Z,30.2791,-87.5561,1.401,29.66,1111122 
DISL,ioos:station:DISL:PPTA:1,2011-12-05T20:00:00Z,30.2791,-87.5561,1.408,29.66,1111122 
DISL,ioos:station:DISL:PPTA:1,2011-12-05T20:30:00Z,30.2791,-87.5561,1.429,29.86,1111122 
DISL,ioos:station:DISL:PPTA:1,2011-12-05T21:00:00Z,30.2791,-87.5561,1.457,29.88,1111122 
DISL,ioos:station:DISL:PPTA:1,2011-12-05T21:30:00Z,30.2791,-87.5561,1.426,29.88,1111122 
DISL,ioos:station:DISL:PPTA:1,2011-12-05T22:00:00Z,30.2791,-87.5561,1.444,29.89,1111122 
DISL,ioos:station:DISL:PPTA:1,2011-12-05T22:30:00Z,30.2791,-87.5561,1.445,30.03,1111122 
DISL,ioos:station:DISL:PPTA:1,2011-12-05T23:00:00Z,30.2791,-87.5561,1.488,29.95,1111122 
DISL,ioos:station:DISL:PPTA:1,2011-12-05T23:30:00Z,30.2791,-87.5561,1.479,29.98,1111122 
DISL,ioos:station:DISL:PPTA:1,2011-12-06T00:00:00Z,30.2791,-87.5561,1.428,30.05,1111122 
DISL,ioos:station:DISL:PPTA:1,2011-12-06T00:30:00Z,30.2791,-87.5561,1.457,30.06,1111122 
DISL,ioos:station:DISL:PPTA:1,2011-12-06T01:00:00Z,30.2791,-87.5561,1.455,30.12,1111122 
DISL,ioos:station:DISL:PPTA:1,2011-12-06T01:30:00Z,30.2791,-87.5561,1.46,30.21,1111122 
DISL,ioos:station:DISL:PPTA:1,2011-12-06T02:00:00Z,30.2791,-87.5561,1.46,30.16,1111122 
DISL,ioos:station:DISL:PPTA:1,2011-12-06T02:30:00Z,30.2791,-87.5561,1.448,30.2,1111122 
DISL,ioos:station:DISL:PPTA:1,2011-12-06T03:00:00Z,30.2791,-87.5561,1.458,28.83,1111122 
DISL,ioos:station:DISL:PPTA:1,2011-12-06T03:30:00Z,30.2791,-87.5561,1.419,29.33,1111122 
DISL,ioos:station:DISL:PPTA:1,2011-12-06T04:00:00Z,30.2791,-87.5561,1.419,28.36,1111122 
DISL,ioos:station:DISL:PPTA:1,2011-12-06T04:30:00Z,30.2791,-87.5561,1.367,29.0,1111122 
DISL,ioos:station:DISL:PPTA:1,2011-12-06T05:00:00Z,30.2791,-87.5561,1.356,29.34,1111122 
DISL,ioos:station:DISL:PPTA:1,2011-12-06T05:30:00Z,30.2791,-87.5561,1.325,29.16,1111122 
DISL,ioos:station:DISL:PPTA:1,2011-12-06T06:00:00Z,30.2791,-87.5561,1.325,28.89,1111122 
DISL,ioos:station:DISL:PPTA:1,2011-12-06T06:30:00Z,30.2791,-87.5561,1.311,28.25,1111122 
DISL,ioos:station:DISL:PPTA:1,2011-12-06T07:00:00Z,30.2791,-87.5561,1.311,27.27,1111122 
DISL,ioos:station:DISL:PPTA:1,2011-12-06T07:30:00Z,30.2791,-87.5561,1.29,26.93,1111122 
DISL,ioos:station:DISL:PPTA:1,2011-12-06T08:00:00Z,30.2791,-87.5561,1.274,26.99,1111122 
DISL,ioos:station:DISL:PPTA:1,2011-12-06T08:30:00Z,30.2791,-87.5561,1.268,26.32,1111122 
DISL,ioos:station:DISL:PPTA:1,2011-12-06T09:00:00Z,30.2791,-87.5561,1.243,26.21,1111122 
DISL,ioos:station:DISL:PPTA:1,2011-12-06T09:30:00Z,30.2791,-87.5561,1.239,26.45,1111122 
DISL,ioos:station:DISL:PPTA:1,2011-12-06T10:00:00Z,30.2791,-87.5561,1.234,26.38,1111122 
DISL,ioos:station:DISL:PPTA:1,2011-12-06T10:30:00Z,30.2791,-87.5561,1.219,26.16,1111122 
DISL,ioos:station:DISL:PPTA:1,2011-12-06T11:00:00Z,30.2791,-87.5561,1.201,26.05,1111122 
DISL,ioos:station:DISL:PPTA:1,2011-12-06T11:30:00Z,30.2791,-87.5561,1.205,26.01,1111122 
DISL,ioos:station:DISL:PPTA:1,2011-12-06T12:00:00Z,30.2791,-87.5561,1.211,25.57,1111122 
DISL,ioos:station:DISL:PPTA:1,2011-12-06T12:30:00Z,30.2791,-87.5561,1.207,25.57,1111122 
DISL,ioos:station:DISL:PPTA:1,2011-12-06T13:00:00Z,30.2791,-87.5561,1.215,25.52,1111122 
DISL,ioos:station:DISL:PPTA:1,2011-12-06T13:30:00Z,30.2791,-87.5561,1.225,25.39,1111122 
DISL,ioos:station:DISL:PPTA:1,2011-12-06T14:00:00Z,30.2791,-87.5561,1.247,25.19,1111122 
DISL,ioos:station:DISL:PPTA:1,2011-12-06T14:30:00Z,30.2791,-87.5561,1.236,25.74,1111122 
DISL,ioos:station:DISL:PPTA:1,2011-12-06T15:00:00Z,30.2791,-87.5561,1.242,26.84,1111122 
DISL,ioos:station:DISL:PPTA:1,2011-12-06T15:30:00Z,30.2791,-87.5561,1.234,26.36,1111122 
DISL,ioos:station:DISL:PPTA:1,2011-12-06T16:00:00Z,30.2791,-87.5561,1.24,26.65,1111122 